NOAA 16 DEB, 41367

Orbit data source: Space-Track

NOAA 16 DEB, 41367 is space debris in SSO originally from a launch on Thu, 21 Sep 2000 UTC launched from the Air Force Western Test Range (AFWTR). Debris objects in space refer to the collection of defunct objects orbiting the Earth. Examples of debris include non-operational satellites, rocket bodies, and fragments generated from explosions, collisions, or faulty payload assembly.

Loading next visibility...
Identifier
41367, 2000-055JL
Orbit
SSO
Country
Flag of USUS
Related business
Manufacturer
Unknown
Mission
Spacecraft
Bus & Motor
Unknown
Mass
Unknown
Launch date (UTC)
2000-09-21 (25 years ago)
Launch vehicle
Unknown
Launch site
Air Force Western Test Range (AFWTR)
Object type
Payload
Rocket body
Debris
Shape & HBR
Unknown shape, 0.1 m
Radar Cross Section
Small (<0.1 m²)

Expand to show TLE details & history
Last TLE update: 13 hours ago

TLE from 13 hours ago
0 NOAA 16 DEB
1 41367U 00055JL  25291.29716718  .00014363  00000-0  35244-2 0  9998
2 41367  99.0050 132.6392 0033220 154.3118 205.9734 14.52151944504943
Epoch: 2025-10-18T07:07Z
TLE epoch observation values (Epoch: 2025-10-18T07:07:55.244Z)
Latitude
-0.00003°
Longitude
-1.37119°
Altitude
742.791 km
Speed
7.472 km/s
True Right ascension
08h 50m 33s
True Declination
0° 00' 00"
Sunlit
Object was in daylight at epoch
Visualization orbit readout
Latitude
Unknown
Longitude
Unknown
Altitude
Unknown
Speed
Unknown
Apparent Right ascension
Unknown
Apparent Declination
Unknown
Sunlit
N/A
Visualization observer readout
Local Sidereal Time
15:02:20
Azimuth
Unknown
Elevation
Unknown
Doppler factor
Unknown
Orbital elements
Apogee altitude
739.325 km
Perigee altitude
692.193 km
Semi-major axis
7,093.896 km
Eccentricity
0.00332
Inclination
99.005°
RAAN
132.6392°
Arg. of periapsis
154.3118°
True anomaly
205.8073°
Mean anomaly
205.9734°
Eccentric anomaly
205.89029°
Mean motion
3.63259 °/min
Orbital period
99.1 mins
BSTAR
0.0035244
Loading maneuver chart data...
Computing Atmospheric mass density...

Documentation

Showing up to 5 results
|